,,Stat5,,Stat1,,Stat2,,Stat3,,Stat4,,Wind1,,Wind1,
time,status,PA1M_AVG,status,PR1M_SUM,status,RH1M_AVG,status,SR1M_AVG,status,TA1M_AVG,status,W1dAve1m,status,W1sAve1m,
2002-12-23, 00:00:00,VALID,917.232,VALID,0,VALID,99.6404,VALID,-0.0849042,VALID,20.5142,VALID,40,VALID,0.822483,
2002-12-23, 00:01:00,VALID,917.232,VALID,0,VALID,99.6391,VALID,-0.101885,VALID,20.511,VALID,43,VALID,0.757607,
2002-12-23, 00:02:00,VALID,917.213,VALID,0,VALID,99.6302,VALID,-0.0849042,VALID,20.5245,VALID,42,VALID,0.576322,
2002-12-23, 00:03:00,VALID,917.211,VALID,0,VALID,99.6378,VALID,-0.0509425,VALID,20.5272,VALID,53,VALID,0.630068,
2002-12-23, 00:04:00,VALID,917.207,VALID,0,VALID,99.6315,VALID,-0.0339617,VALID,20.5177,VALID,49,VALID,0.556055,
2002-12-23, 00:05:00,VALID,917.193,VALID,0,VALID,99.6391,VALID,-0.0679233,VALID,20.521,VALID,66,VALID,0.647593,
2002-12-23, 00:06:00,VALID,917.185,VALID,0,VALID,99.6417,VALID,-0.0679233,VALID,20.4941,VALID,72,VALID,0.448933,
2002-12-23, 00:07:00,VALID,917.188,VALID,0,VALID,99.6442,VALID,0.0339617,VALID,20.4998,VALID,70,VALID,0.211965,
2002-12-23, 00:08:00,VALID,917.189,VALID,0,VALID,99.6378,VALID,0.0339617,VALID,20.5062,VALID,78,VALID,0.380609,
2002-12-23, 00:09:00,VALID,917.181,VALID,0,VALID,99.6302,VALID,0.0169808,VALID,20.4871,VALID,86,VALID,0.381334,
2002-12-23, 00:10:00,VALID,917.182,VALID,0,VALID,99.6404,VALID,0.0339617,VALID,20.4903,VALID,94,VALID,0.464738,
2002-12-23, 00:11:00,VALID,917.177,VALID,0,VALID,99.6468,VALID,0.0169808,VALID,20.4868,VALID,115,VALID,0.269748,
2002-12-23, 00:12:00,VALID,917.187,VALID,0,VALID,99.6493,VALID,0.0169808,VALID,20.4998,VALID,126,VALID,0.161523,
2002-12-23, 00:13:00,VALID,917.185,VALID,0,VALID,99.6595,VALID,0.0339617,VALID,20.5033,VALID,143,VALID,0.267887,
2002-12-23, 00:14:00,VALID,917.186,VALID,0,VALID,99.662,VALID,0.0169808,VALID,20.5062,VALID,143,VALID,0.320929,
2002-12-23, 00:15:00,VALID,917.197,VALID,0,VALID,99.6493,VALID,0.0339617,VALID,20.5162,VALID,143,VALID,0.229441,
2002-12-23, 00:16:00,VALID,917.215,VALID,0,VALID,99.6569,VALID,0.0169808,VALID,20.509,VALID,146,VALID,0.547266,
2002-12-23, 00:17:00,VALID,917.198,VALID,0,VALID,99.6595,VALID,0.0679233,VALID,20.5122,VALID,137,VALID,0.569901,
2002-12-23, 00:18:00,VALID,917.195,VALID,0,VALID,99.6569,VALID,0.0509425,VALID,20.5122,VALID,146,VALID,0.587891,
2002-12-23, 00:19:00,VALID,917.182,VALID,0,VALID,99.6569,VALID,0.0339617,VALID,20.5162,VALID,143,VALID,0.629856,
2002-12-23, 00:20:00,VALID,917.187,VALID,0,VALID,99.6429,VALID,0.0849042,VALID,20.5189,VALID,146,VALID,0.695964,
2002-12-23, 00:21:00,VALID,917.188,VALID,0,VALID,99.6544,VALID,0.0339617,VALID,20.5224,VALID,144,VALID,0.300781,
2002-12-23, 00:22:00,VALID,917.183,VALID,0,VALID,99.6506,VALID,-0.0679233,VALID,20.5172,VALID,111,VALID,0.253239,
2002-12-23, 00:23:00,VALID,917.194,VALID,0,VALID,99.6544,VALID,-0.0679233,VALID,20.5342,VALID,127,VALID,0.140203,
2002-12-23, 00:24:00,VALID,917.197,VALID,0,VALID,99.6493,VALID,-0.0679233,VALID,20.5371,VALID,125,VALID,0.273643,
2002-12-23, 00:25:00,VALID,917.202,VALID,0,VALID,99.662,VALID,-0.0509425,VALID,20.5307,VALID,129,VALID,0.408995,
2002-12-23, 00:26:00,VALID,917.199,VALID,0,VALID,99.6518,VALID,-0.0339617,VALID,20.521,VALID,139,VALID,0.519727,
2002-12-23, 00:27:00,VALID,917.205,VALID,0,VALID,99.6556,VALID,-0.0849042,VALID,20.5309,VALID,143,VALID,0.410773,
2002-12-23, 00:28:00,VALID,917.198,VALID,0,VALID,99.6556,VALID,-0.0679233,VALID,20.5172,VALID,138,VALID,0.158784,
2002-12-23, 00:29:00,VALID,917.21,VALID,0,VALID,99.6506,VALID,-0.0679233,VALID,20.5205,VALID,124,VALID,0.0829814,
2002-12-23, 00:30:00,VALID,917.215,VALID,0,VALID,99.6531,VALID,-0.0339617,VALID,20.5205,VALID,112,VALID,0.103463,
2002-12-23, 00:31:00,VALID,917.224,VALID,0,VALID,99.6544,VALID,-0.0849042,VALID,20.5046,VALID,108,VALID,0.0272321,
2002-12-23, 00:32:00,VALID,917.238,VALID,0,VALID,99.6442,VALID,-0.0509425,VALID,20.5113,VALID,108,VALID,0,
2002-12-23, 00:33:00,VALID,917.256,VALID,0,VALID,99.6544,VALID,-0.0509425,VALID,20.5102,VALID,108,VALID,0,
2002-12-23, 00:34:00,VALID,917.245,VALID,0,VALID,99.6556,VALID,-0.0509425,VALID,20.5342,VALID,108,VALID,0,
2002-12-23, 00:35:00,VALID,917.26,VALID,0,VALID,99.6569,VALID,-0.0509425,VALID,20.5369,VALID,108,VALID,0.0873766,
2002-12-23, 00:36:00,VALID,917.274,VALID,0,VALID,99.6582,VALID,-0.101885,VALID,20.5339,VALID,108,VALID,0.366425,
2002-12-23, 00:37:00,VALID,917.266,VALID,0,VALID,99.6518,VALID,-0.0509425,VALID,20.5274,VALID,136,VALID,0.227796,
2002-12-23, 00:38:00,VALID,917.268,VALID,0,VALID,99.6506,VALID,-0.0509425,VALID,20.5046,VALID,175,VALID,0.0877878,
2002-12-23, 00:39:00,VALID,917.251,VALID,0,VALID,99.6582,VALID,-0.0679233,VALID,20.5043,VALID,175,VALID,0.0483941,
2002-12-23, 00:40:00,VALID,917.255,VALID,0,VALID,99.6531,VALID,-0.0679233,VALID,20.5145,VALID,175,VALID,0.00380068,
2002-12-23, 00:41:00,VALID,917.249,VALID,0,VALID,99.6595,VALID,-0.0509425,VALID,20.5205,VALID,175,VALID,0,
2002-12-23, 00:42:00,VALID,917.234,VALID,0,VALID,99.6531,VALID,-0.101885,VALID,20.5269,VALID,175,VALID,0,
2002-12-23, 00:43:00,VALID,917.243,VALID,0,VALID,99.6544,VALID,-0.0339617,VALID,20.5369,VALID,175,VALID,0,
2002-12-23, 00:44:00,VALID,917.238,VALID,0,VALID,99.6607,VALID,-0.0169808,VALID,20.5369,VALID,175,VALID,0,
2002-12-23, 00:45:00,VALID,917.236,VALID,0,VALID,99.6582,VALID,-0.0509425,VALID,20.5466,VALID,175,VALID,0,
2002-12-23, 00:46:00,VALID,917.222,VALID,0,VALID,99.6595,VALID,-0.0339617,VALID,20.5498,VALID,175,VALID,0,
2002-12-23, 00:47:00,VALID,917.214,VALID,0,VALID,99.6569,VALID,-0.0849042,VALID,20.5331,VALID,175,VALID,0,
2002-12-23, 00:48:00,VALID,917.211,VALID,0,VALID,99.662,VALID,-0.0679233,VALID,20.5274,VALID,175,VALID,0.0145399,
2002-12-23, 00:49:00,VALID,917.2,VALID,0,VALID,99.6556,VALID,-0.0509425,VALID,20.5272,VALID,175,VALID,0,
2002-12-23, 00:50:00,VALID,917.19,VALID,0,VALID,99.6582,VALID,-0.0509425,VALID,20.5406,VALID,175,VALID,0,
2002-12-23, 00:51:00,VALID,917.177,VALID,0,VALID,99.662,VALID,-0.0509425,VALID,20.5525,VALID,175,VALID,0.0855035,
2002-12-23, 00:52:00,VALID,917.171,VALID,0,VALID,99.6518,VALID,-0.0339617,VALID,20.5619,VALID,120,VALID,0.350038,
2002-12-23, 00:53:00,VALID,917.176,VALID,0,VALID,99.6442,VALID,-0.0509425,VALID,20.5948,VALID,26,VALID,0.477196,
2002-12-23, 00:54:00,VALID,917.181,VALID,0,VALID,99.6468,VALID,0,VALID,20.595,VALID,26,VALID,0.574219,
2002-12-23, 00:55:00,VALID,917.156,VALID,0,VALID,99.6404,VALID,0.0169808,VALID,20.5916,VALID,26,VALID,0.449747,
2002-12-23, 00:56:00,VALID,917.149,VALID,0,VALID,99.6468,VALID,-0.0339617,VALID,20.5886,VALID,26,VALID,0.0800781,
2002-12-23, 00:57:00,VALID,917.124,VALID,0,VALID,99.6455,VALID,0,VALID,20.5821,VALID,26,VALID,0,
2002-12-23, 00:58:00,VALID,917.108,VALID,0,VALID,99.6455,VALID,-0.0169808,VALID,20.5759,VALID,26,VALID,0,
2002-12-23, 00:59:00,VALID,917.081,VALID,0.2,VALID,99.6429,VALID,-0.0339617,VALID,20.5692,VALID,26,VALID,0,
2002-12-23, 01:00:00,VALID,917.063,VALID,0,VALID,99.6442,VALID,0,VALID,20.553,VALID,26,VALID,0,
2002-12-23, 01:01:00,VALID,917.049,VALID,0,VALID,99.6531,VALID,0,VALID,20.5592,VALID,26,VALID,0,
2002-12-23, 01:02:00,VALID,917.026,VALID,0,VALID,99.662,VALID,-0.0169808,VALID,20.5498,VALID,26,VALID,0.284745,
2002-12-23, 01:03:00,VALID,917.03,VALID,0,VALID,99.6607,VALID,-0.0169808,VALID,20.5528,VALID,26,VALID,0.372255,
2002-12-23, 01:04:00,VALID,917.007,VALID,0,VALID,99.6582,VALID,-0.0169808,VALID,20.5267,VALID,26,VALID,0.497466,
2002-12-23, 01:05:00,VALID,916.987,VALID,0,VALID,99.6569,VALID,0,VALID,20.5272,VALID,22,VALID,0.511308,
2002-12-23, 01:06:00,VALID,916.978,VALID,0.2,VALID,99.6582,VALID,0,VALID,20.5274,VALID,16,VALID,0.569741,
2002-12-23, 01:07:00,VALID,916.963,VALID,0,VALID,99.6671,VALID,-0.0169808,VALID,20.5145,VALID,16,VALID,0.509868,
2002-12-23, 01:08:00,VALID,916.937,VALID,0,VALID,99.662,VALID,0.0169808,VALID,20.5142,VALID,16,VALID,0.477385,
2002-12-23, 01:09:00,VALID,916.918,VALID,0,VALID,99.6684,VALID,-0.0169808,VALID,20.5008,VALID,16,VALID,0.401693,
2002-12-23, 01:10:00,VALID,916.903,VALID,0,VALID,99.6569,VALID,-0.0509425,VALID,20.5048,VALID,16,VALID,0.385346,
2002-12-23, 01:11:00,VALID,916.888,VALID,0,VALID,99.6633,VALID,-0.0339617,VALID,20.4951,VALID,15,VALID,0.482767,
2002-12-23, 01:12:00,VALID,916.878,VALID,0,VALID,99.6684,VALID,-0.0339617,VALID,20.4887,VALID,15,VALID,0.401953,
2002-12-23, 01:13:00,VALID,916.857,VALID,0.2,VALID,99.6633,VALID,-0.0169808,VALID,20.4784,VALID,18,VALID,0.445313,
2002-12-23, 01:14:00,VALID,916.843,VALID,0,VALID,99.6646,VALID,-0.0339617,VALID,20.466,VALID,27,VALID,0.55366,
2002-12-23, 01:15:00,VALID,916.818,VALID,0,VALID,99.6747,VALID,0,VALID,20.4531,VALID,29,VALID,0.351151,
2002-12-23, 01:16:00,VALID,916.796,VALID,0,VALID,99.6747,VALID,0,VALID,20.4534,VALID,46,VALID,0.566211,
2002-12-23, 01:17:00,VALID,916.76,VALID,0.2,VALID,99.6709,VALID,0,VALID,20.4399,VALID,47,VALID,0.0809462,
2002-12-23, 01:18:00,VALID,916.76,VALID,0.2,VALID,99.6671,VALID,-0.0169808,VALID,20.4399,VALID,47,VALID,0.0234375,
2002-12-23, 01:19:00,VALID,916.736,VALID,0,VALID,99.6595,VALID,-0.0339617,VALID,20.4369,VALID,47,VALID,0.00253378,
2002-12-23, 01:20:00,VALID,916.716,VALID,0,VALID,99.6722,VALID,-0.0339617,VALID,20.4302,VALID,44,VALID,0.192925,
2002-12-23, 01:21:00,VALID,916.68,VALID,0,VALID,99.6722,VALID,-0.0339617,VALID,20.4208,VALID,28,VALID,0.362196,
2002-12-23, 01:22:00,VALID,916.659,VALID,0,VALID,99.676,VALID,-0.0339617,VALID,20.4243,VALID,28,VALID,0.172256,
2002-12-23, 01:23:00,VALID,916.641,VALID,0,VALID,99.6747,VALID,-0.0169808,VALID,20.424,VALID,28,VALID,0,
2002-12-23, 01:24:00,VALID,916.621,VALID,0,VALID,99.6773,VALID,-0.0509425,VALID,20.43,VALID,28,VALID,0,
2002-12-23, 01:25:00,VALID,916.593,VALID,0,VALID,99.6773,VALID,-0.0339617,VALID,20.4496,VALID,28,VALID,0,
2002-12-23, 01:26:00,VALID,916.568,VALID,0,VALID,99.6722,VALID,0,VALID,20.4364,VALID,28,VALID,0,
2002-12-23, 01:27:00,VALID,916.552,VALID,0,VALID,99.6747,VALID,-0.0509425,VALID,20.4337,VALID,28,VALID,0,
2002-12-23, 01:28:00,VALID,916.525,VALID,0,VALID,99.6798,VALID,-0.0169808,VALID,20.4429,VALID,28,VALID,0,
2002-12-23, 01:29:00,VALID,916.515,VALID,0,VALID,99.6747,VALID,-0.0339617,VALID,20.4566,VALID,28,VALID,0,
2002-12-23, 01:30:00,VALID,916.487,VALID,0,VALID,99.6709,VALID,-0.0169808,VALID,20.4501,VALID,28,VALID,0,
2002-12-23, 01:31:00,VALID,916.455,VALID,0,VALID,99.6735,VALID,-0.0509425,VALID,20.4437,VALID,28,VALID,0,
2002-12-23, 01:32:00,VALID,916.429,VALID,0,VALID,99.6785,VALID,0,VALID,20.4434,VALID,28,VALID,0,
2002-12-23, 01:33:00,VALID,916.408,VALID,0,VALID,99.6747,VALID,-0.0169808,VALID,20.4429,VALID,28,VALID,0,
2002-12-23, 01:34:00,VALID,916.383,VALID,0.2,VALID,99.6709,VALID,-0.0169808,VALID,20.4499,VALID,28,VALID,0,
2002-12-23, 01:35:00,VALID,916.356,VALID,0,VALID,99.6735,VALID,-0.0339617,VALID,20.4335,VALID,28,VALID,0,
2002-12-23, 01:36:00,VALID,916.343,VALID,0,VALID,99.676,VALID,-0.0339617,VALID,20.427,VALID,28,VALID,0,
2002-12-23, 01:37:00,VALID,916.315,VALID,0,VALID,99.6722,VALID,-0.0169808,VALID,20.4238,VALID,28,VALID,0,
2002-12-23, 01:38:00,VALID,916.3,VALID,0,VALID,99.6798,VALID,0,VALID,20.4143,VALID,28,VALID,0,
2002-12-23, 01:39:00,VALID,916.267,VALID,0,VALID,99.6709,VALID,0,VALID,20.4041,VALID,28,VALID,0,
2002-12-23, 01:40:00,VALID,916.247,VALID,0,VALID,99.6709,VALID,-0.0339617,VALID,20.4014,VALID,28,VALID,0.0485642,
2002-12-23, 01:41:00,VALID,916.22,VALID,0,VALID,99.6798,VALID,-0.0339617,VALID,20.3818,VALID,350,VALID,0.27068,
2002-12-23, 01:42:00,VALID,916.19,VALID,0,VALID,99.6747,VALID,-0.0169808,VALID,20.3882,VALID,304,VALID,0.210547,
2002-12-23, 01:43:00,VALID,916.156,VALID,0,VALID,99.676,VALID,0,VALID,20.3914,VALID,234,VALID,0.224359,
2002-12-23, 01:44:00,VALID,916.124,VALID,0,VALID,99.6785,VALID,0,VALID,20.385,VALID,190,VALID,0.127673,
2002-12-23, 01:45:00,VALID,916.097,VALID,0,VALID,99.6811,VALID,0,VALID,20.3917,VALID,174,VALID,0.307566,
2002-12-23, 01:46:00,VALID,916.096,VALID,0,VALID,99.6773,VALID,0,VALID,20.3621,VALID,176,VALID,0.315234,
2002-12-23, 01:47:00,VALID,916.078,VALID,0,VALID,99.6836,VALID,-0.0339617,VALID,20.3559,VALID,174,VALID,0.460321,
2002-12-23, 01:48:00,VALID,916.059,VALID,0,VALID,99.6874,VALID,0,VALID,20.3465,VALID,174,VALID,0.313802,
2002-12-23, 01:49:00,VALID,916.057,VALID,0,VALID,99.6849,VALID,-0.0169808,VALID,20.3333,VALID,175,VALID,0.382601,
2002-12-23, 01:50:00,VALID,916.047,VALID,0,VALID,99.6951,VALID,0,VALID,20.3201,VALID,177,VALID,0.152127,
2002-12-23, 01:51:00,VALID,916.023,VALID,0,VALID,99.6811,VALID,0,VALID,20.337,VALID,177,VALID,0,
2002-12-23, 01:52:00,VALID,916.006,VALID,0,VALID,99.69,VALID,-0.0169808,VALID,20.3462,VALID,177,VALID,0,
2002-12-23, 01:53:00,VALID,915.989,VALID,0,VALID,99.6951,VALID,-0.0339617,VALID,20.3497,VALID,177,VALID,0,
2002-12-23, 01:54:00,VALID,915.97,VALID,0,VALID,99.6963,VALID,-0.0509425,VALID,20.343,VALID,177,VALID,0.047903,
2002-12-23, 01:55:00,VALID,915.955,VALID,0,VALID,99.6874,VALID,-0.0339617,VALID,20.3392,VALID,177,VALID,0.221073,
2002-12-23, 01:56:00,VALID,915.961,VALID,0,VALID,99.6925,VALID,-0.0509425,VALID,20.3497,VALID,177,VALID,0.245898,
2002-12-23, 01:57:00,VALID,915.945,VALID,0,VALID,99.6887,VALID,-0.0679233,VALID,20.3524,VALID,164,VALID,0.203331,
2002-12-23, 01:58:00,VALID,915.94,VALID,0,VALID,99.6938,VALID,-0.0509425,VALID,20.3457,VALID,155,VALID,0.168497,
2002-12-23, 01:59:00,VALID,915.947,VALID,0,VALID,99.6951,VALID,-0.0339617,VALID,20.3489,VALID,152,VALID,0.0553209,
2002-12-23, 02:00:00,VALID,915.937,VALID,0,VALID,99.6963,VALID,-0.0339617,VALID,20.3691,VALID,150,VALID,0,
2002-12-23, 02:01:00,VALID,915.927,VALID,0,VALID,99.6951,VALID,-0.0339617,VALID,20.3753,VALID,150,VALID,0.00558036,
2002-12-23, 02:02:00,VALID,915.921,VALID,0,VALID,99.6874,VALID,-0.0169808,VALID,20.382,VALID,150,VALID,0.131373,
2002-12-23, 02:03:00,VALID,915.928,VALID,0,VALID,99.6976,VALID,-0.0169808,VALID,20.3713,VALID,123,VALID,0.272804,
2002-12-23, 02:04:00,VALID,915.914,VALID,0,VALID,99.6951,VALID,-0.0169808,VALID,20.3847,VALID,117,VALID,0.0107686,
2002-12-23, 02:05:00,VALID,915.927,VALID,0,VALID,99.6963,VALID,0,VALID,20.3845,VALID,129,VALID,0.360814,
2002-12-23, 02:06:00,VALID,915.927,VALID,0,VALID,99.6874,VALID,0,VALID,20.388,VALID,130,VALID,0.0590701,
2002-12-23, 02:07:00,VALID,915.944,VALID,0,VALID,99.6785,VALID,0.0339617,VALID,20.4031,VALID,129,VALID,0.312911,
2002-12-23, 02:08:00,VALID,915.924,VALID,0,VALID,99.6824,VALID,0.0679233,VALID,20.3897,VALID,119,VALID,0.424342,
2002-12-23, 02:09:00,VALID,915.923,VALID,0,VALID,99.6862,VALID,0.0849042,VALID,20.3897,VALID,103,VALID,0.446615,
2002-12-23, 02:10:00,VALID,915.917,VALID,0,VALID,99.6874,VALID,0.101885,VALID,20.3867,VALID,55,VALID,0.427365,
2002-12-23, 02:11:00,VALID,915.905,VALID,0,VALID,99.6798,VALID,0.0509425,VALID,20.3964,VALID,45,VALID,0.237592,
2002-12-23, 02:12:00,VALID,915.911,VALID,0,VALID,99.6836,VALID,0.0849042,VALID,20.4222,VALID,62,VALID,0.0222656,
2002-12-23, 02:13:00,VALID,915.918,VALID,0,VALID,99.6824,VALID,0.0679233,VALID,20.4123,VALID,76,VALID,0.647636,
2002-12-23, 02:14:00,VALID,915.91,VALID,0,VALID,99.6785,VALID,0.0679233,VALID,20.412,VALID,60,VALID,0.5919,
2002-12-23, 02:15:00,VALID,915.902,VALID,0,VALID,99.6811,VALID,0.0679233,VALID,20.409,VALID,63,VALID,0.80551,
2002-12-23, 02:16:00,VALID,915.89,VALID,0,VALID,99.6785,VALID,0.0509425,VALID,20.4222,VALID,69,VALID,0.940234,
2002-12-23, 02:17:00,VALID,915.886,VALID,0,VALID,99.6811,VALID,0.0849042,VALID,20.422,VALID,55,VALID,0.83162,
2002-12-23, 02:18:00,VALID,915.885,VALID,0,VALID,99.6798,VALID,0.101885,VALID,20.422,VALID,70,VALID,0.98546,
2002-12-23, 02:19:00,VALID,915.874,VALID,0,VALID,99.6824,VALID,0.0679233,VALID,20.4252,VALID,101,VALID,1.09649,
2002-12-23, 02:20:00,VALID,915.861,VALID,0,VALID,99.6874,VALID,0.0679233,VALID,20.4152,VALID,103,VALID,1.0434,
2002-12-23, 02:21:00,VALID,915.848,VALID,0,VALID,99.6811,VALID,0.118866,VALID,20.4123,VALID,60,VALID,1.12305,
2002-12-23, 02:22:00,VALID,915.839,VALID,0,VALID,99.69,VALID,-0.0169808,VALID,20.4036,VALID,60,VALID,0.533537,
2002-12-23, 02:23:00,VALID,915.835,VALID,0,VALID,99.6862,VALID,-0.0339617,VALID,20.4143,VALID,32,VALID,0.541596,
2002-12-23, 02:24:00,VALID,915.808,VALID,0,VALID,99.6811,VALID,-0.0169808,VALID,20.4205,VALID,21,VALID,1.31867,
2002-12-23, 02:25:00,VALID,915.805,VALID,0,VALID,99.6938,VALID,-0.0169808,VALID,20.4494,VALID,24,VALID,1.12099,
2002-12-23, 02:26:00,VALID,915.788,VALID,0,VALID,99.6913,VALID,-0.0169808,VALID,20.4523,VALID,43,VALID,0.690625,
2002-12-23, 02:27:00,VALID,915.784,VALID,0.2,VALID,99.6874,VALID,-0.0169808,VALID,20.4464,VALID,31,VALID,0.621916,
2002-12-23, 02:28:00,VALID,915.773,VALID,0,VALID,99.69,VALID,0,VALID,20.4496,VALID,47,VALID,0.583193,
2002-12-23, 02:29:00,VALID,915.773,VALID,0,VALID,99.69,VALID,0,VALID,20.4464,VALID,55,VALID,0.952492,
2002-12-23, 02:30:00,VALID,915.743,VALID,0,VALID,99.69,VALID,-0.0169808,VALID,20.4198,VALID,53,VALID,0.980785,
2002-12-23, 02:31:00,VALID,915.73,VALID,0,VALID,99.6887,VALID,-0.0169808,VALID,20.4071,VALID,68,VALID,0.733482,
2002-12-23, 02:32:00,VALID,915.705,VALID,0,VALID,99.6925,VALID,0,VALID,20.4108,VALID,69,VALID,0.690995,
2002-12-23, 02:33:00,VALID,915.682,VALID,0,VALID,99.6963,VALID,0,VALID,20.3939,VALID,49,VALID,0.605152,
2002-12-23, 02:34:00,VALID,915.655,VALID,0,VALID,99.6951,VALID,0,VALID,20.3982,VALID,54,VALID,0.446791,
2002-12-23, 02:35:00,VALID,915.634,VALID,0,VALID,99.6887,VALID,-0.0169808,VALID,20.3979,VALID,54,VALID,0.183799,
2002-12-23, 02:36:00,VALID,915.619,VALID,0,VALID,99.6913,VALID,-0.0339617,VALID,20.4044,VALID,54,VALID,0.00171494,
2002-12-23, 02:37:00,VALID,915.609,VALID,0,VALID,99.6925,VALID,-0.0169808,VALID,20.4011,VALID,54,VALID,0,
2002-12-23, 02:38:00,VALID,915.584,VALID,0,VALID,99.69,VALID,-0.0509425,VALID,20.3914,VALID,54,VALID,0,
2002-12-23, 02:39:00,VALID,915.548,VALID,0,VALID,99.6836,VALID,-0.0679233,VALID,20.3982,VALID,54,VALID,0,
2002-12-23, 02:40:00,VALID,915.521,VALID,0,VALID,99.6862,VALID,-0.0509425,VALID,20.3947,VALID,54,VALID,0.0732686,
2002-12-23, 02:41:00,VALID,915.507,VALID,0,VALID,99.6925,VALID,-0.0679233,VALID,20.3914,VALID,54,VALID,0.13534,
2002-12-23, 02:42:00,VALID,915.487,VALID,0,VALID,99.6874,VALID,-0.0509425,VALID,20.3882,VALID,54,VALID,0,
2002-12-23, 02:43:00,VALID,915.502,VALID,0,VALID,99.69,VALID,0,VALID,20.3783,VALID,54,VALID,0,
2002-12-23, 02:44:00,VALID,915.491,VALID,0,VALID,99.6925,VALID,-0.0509425,VALID,20.3947,VALID,54,VALID,0,
2002-12-23, 02:45:00,VALID,915.497,VALID,0,VALID,99.69,VALID,-0.0339617,VALID,20.3982,VALID,54,VALID,0,
2002-12-23, 02:46:00,VALID,915.494,VALID,0,VALID,99.6925,VALID,-0.0679233,VALID,20.4017,VALID,54,VALID,0,
2002-12-23, 02:47:00,VALID,915.492,VALID,0,VALID,99.6874,VALID,-0.0849042,VALID,20.3979,VALID,54,VALID,0,
2002-12-23, 02:48:00,VALID,915.474,VALID,0,VALID,99.6887,VALID,-0.0679233,VALID,20.4049,VALID,54,VALID,0,
2002-12-23, 02:49:00,VALID,915.458,VALID,0,VALID,99.6925,VALID,-0.0509425,VALID,20.4208,VALID,54,VALID,0,
2002-12-23, 02:50:00,VALID,915.434,VALID,0,VALID,99.6938,VALID,-0.0509425,VALID,20.3947,VALID,11,VALID,0.197483,
2002-12-23, 02:51:00,VALID,915.419,VALID,0,VALID,99.6887,VALID,-0.0169808,VALID,20.375,VALID,315,VALID,0.288194,
2002-12-23, 02:52:00,VALID,915.397,VALID,0,VALID,99.69,VALID,-0.0169808,VALID,20.3874,VALID,305,VALID,0.125381,
2002-12-23, 02:53:00,VALID,915.377,VALID,0,VALID,99.6913,VALID,0,VALID,20.3845,VALID,305,VALID,0,
2002-12-23, 02:54:00,VALID,915.356,VALID,0,VALID,99.6925,VALID,0,VALID,20.3837,VALID,305,VALID,0,
2002-12-23, 02:55:00,VALID,915.348,VALID,0,VALID,99.69,VALID,0,VALID,20.3834,VALID,305,VALID,0.0166807,
2002-12-23, 02:56:00,VALID,915.354,VALID,0,VALID,99.6785,VALID,0,VALID,20.3931,VALID,305,VALID,0,
2002-12-23, 02:57:00,VALID,915.344,VALID,0,VALID,99.6862,VALID,-0.0169808,VALID,20.413,VALID,305,VALID,0,
2002-12-23, 02:58:00,VALID,915.352,VALID,0,VALID,99.6836,VALID,-0.0169808,VALID,20.4163,VALID,302,VALID,0.0806588,
2002-12-23, 02:59:00,VALID,915.349,VALID,0,VALID,99.6862,VALID,0,VALID,20.416,VALID,300,VALID,0.0439189,
2002-12-23, 03:00:00,VALID,915.364,VALID,0,VALID,99.6849,VALID,0.0169808,VALID,20.4163,VALID,300,VALID,0,
2002-12-23, 03:01:00,VALID,915.398,VALID,0,VALID,99.6938,VALID,0,VALID,20.4265,VALID,37,VALID,0.396429,
2002-12-23, 03:02:00,VALID,915.409,VALID,0,VALID,99.69,VALID,-0.0169808,VALID,20.42,VALID,63,VALID,0.832031,
2002-12-23, 03:03:00,VALID,915.442,VALID,0,VALID,99.6938,VALID,0,VALID,20.4098,VALID,47,VALID,0.817356,
2002-12-23, 03:04:00,VALID,915.452,VALID,0,VALID,99.6887,VALID,-0.0169808,VALID,20.4039,VALID,42,VALID,0.854941,
2002-12-23, 03:05:00,VALID,915.464,VALID,0,VALID,99.6913,VALID,-0.0339617,VALID,20.384,VALID,34,VALID,0.700452,
2002-12-23, 03:06:00,VALID,915.461,VALID,0,VALID,99.6913,VALID,0,VALID,20.4039,VALID,14,VALID,0.920541,
2002-12-23, 03:07:00,VALID,915.446,VALID,0,VALID,99.6925,VALID,0,VALID,20.3939,VALID,19,VALID,0.771587,
2002-12-23, 03:08:00,VALID,915.445,VALID,0,VALID,99.704,VALID,0.0169808,VALID,20.371,VALID,32,VALID,0.952303,
2002-12-23, 03:09:00,VALID,915.427,VALID,0,VALID,99.7129,VALID,0.0169808,VALID,20.3511,VALID,18,VALID,1.23958,
2002-12-23, 03:10:00,VALID,915.429,VALID,0,VALID,99.7078,VALID,0,VALID,20.3419,VALID,32,VALID,1.23958,
2002-12-23, 03:11:00,VALID,915.429,VALID,0,VALID,99.7052,VALID,0,VALID,20.3419,VALID,29,VALID,1.02918,
2002-12-23, 03:12:00,VALID,915.418,VALID,0,VALID,99.7129,VALID,0,VALID,20.3425,VALID,23,VALID,0.840625,
2002-12-23, 03:13:00,VALID,915.41,VALID,0,VALID,99.7052,VALID,0,VALID,20.3449,VALID,7,VALID,0.863181,
2002-12-23, 03:14:00,VALID,915.408,VALID,0,VALID,99.7091,VALID,0.0169808,VALID,20.3263,VALID,6,VALID,1.14227,
2002-12-23, 03:15:00,VALID,915.404,VALID,0,VALID,99.7078,VALID,0,VALID,20.3355,VALID,5,VALID,0.779605,
2002-12-23, 03:16:00,VALID,915.412,VALID,0,VALID,99.7027,VALID,0,VALID,20.3323,VALID,360,VALID,0.952539,
2002-12-23, 03:17:00,VALID,915.419,VALID,0,VALID,99.7129,VALID,-0.0169808,VALID,20.3129,VALID,357,VALID,0.790296,
2002-12-23, 03:18:00,VALID,915.438,VALID,0,VALID,99.7103,VALID,0,VALID,20.3263,VALID,5,VALID,1.06033,
2002-12-23, 03:19:00,VALID,915.441,VALID,0,VALID,99.7116,VALID,0,VALID,20.3266,VALID,14,VALID,0.702703,
2002-12-23, 03:20:00,VALID,915.422,VALID,0,VALID,99.7167,VALID,0,VALID,20.3201,VALID,349,VALID,0.521267,
2002-12-23, 03:21:00,VALID,915.424,VALID,0,VALID,99.7256,VALID,0,VALID,20.2935,VALID,349,VALID,0.382595,
2002-12-23, 03:22:00,VALID,915.412,VALID,0,VALID,99.7205,VALID,0,VALID,20.287,VALID,347,VALID,0.556402,
2002-12-23, 03:23:00,VALID,915.415,VALID,0,VALID,99.7192,VALID,0,VALID,20.2681,VALID,1,VALID,0.60114,
2002-12-23, 03:24:00,VALID,915.414,VALID,0,VALID,99.7192,VALID,0,VALID,20.2778,VALID,12,VALID,0.484169,
2002-12-23, 03:25:00,VALID,915.425,VALID,0,VALID,99.723,VALID,0,VALID,20.2868,VALID,13,VALID,0.713471,
2002-12-23, 03:26:00,VALID,915.435,VALID,0,VALID,99.7192,VALID,0,VALID,20.2865,VALID,15,VALID,0.949414,
2002-12-23, 03:27:00,VALID,915.454,VALID,0,VALID,99.7141,VALID,0,VALID,20.3002,VALID,12,VALID,0.755962,
2002-12-23, 03:28:00,VALID,915.453,VALID,0,VALID,99.7167,VALID,0.0169808,VALID,20.3027,VALID,15,VALID,0.476774,
2002-12-23, 03:29:00,VALID,915.436,VALID,0,VALID,99.7103,VALID,0,VALID,20.3032,VALID,15,VALID,0.442145,
2002-12-23, 03:30:00,VALID,915.447,VALID,0.2,VALID,99.718,VALID,0,VALID,20.2932,VALID,15,VALID,0.382813,
2002-12-23, 03:31:00,VALID,915.429,VALID,0,VALID,99.7167,VALID,0,VALID,20.3136,VALID,15,VALID,0.189732,
2002-12-23, 03:32:00,VALID,915.433,VALID,0,VALID,99.7154,VALID,0,VALID,20.3002,VALID,18,VALID,0.00308388,
2002-12-23, 03:33:00,VALID,915.42,VALID,0,VALID,99.7192,VALID,0,VALID,20.287,VALID,29,VALID,0.142948,
2002-12-23, 03:34:00,VALID,915.429,VALID,0,VALID,99.7103,VALID,0,VALID,20.2813,VALID,44,VALID,0.159417,
2002-12-23, 03:35:00,VALID,915.429,VALID,0,VALID,99.7205,VALID,0,VALID,20.2547,VALID,53,VALID,0.346834,
2002-12-23, 03:36:00,VALID,915.414,VALID,0,VALID,99.718,VALID,-0.0169808,VALID,20.2552,VALID,54,VALID,0.352896,